Location: Newark
(21.1200°N, 73.4000°E)
Time: 14:57:28
(UTC+00:00)

Courier 1B Rocket - Pass Details

Date: 19 January 2020
Orbit: 920 x 1202 km, 28.2° (Epoch: 25 February)

Event Time Altitude Azimuth Distance (km) Brightness Sun altitude
Rises 15:19:54 0° 283° (WNW) 3,550 8.8 -34.9°
Reaches altitude 10° 15:22:37 10° 276° (W) 2,618 8.0 -35.5°
Enters shadow 15:27:35 39° 227° (SW) 1,380 6.0 -36.7°
Maximum altitude 15:28:27 41° 207° (SSW) 1,344 - -36.9°
Drops below altitude 10° 15:34:34 10° 139° (SE) 2,739 - -38.3°
Sets 15:37:28 0° 132° (SE) 3,731 - -38.9°
